Temp
6 5 5 6 5 5 6 6 6 6 6 6 6 6 6 6 6 6 6 6 6 5 5 5 5 5 5 5 5 5 5 5 5 5 5 5 5 5 5 5 5 5 5
6 6 6 6 6 6 6 6 6 6 6 6 6 6 6 6 6 6 6 6 6 5 5 5 5 5 5 5 5 5 5 5 5 5 5 5 5 5 5 5 5 4 4
7 6 6 6 6 6 6 6 6 6 6 6 6 6 6 6 6 6 6 6 6 5 5 5 5 5 5 5 5 5 5 5 5 4 5 4 5 5 5 5 5 4 4
7 6 6 6 6 6 6 6 6 6 6 6 5 5 5 5 5 5 5 5 6 6 5 5 5 5 5 5 5 5 5 5 5 5 4 4 4 5 5 5 5 4 4
6 6 6 6 6 6 6 6 6 6 6 6 6 6 6 6 6 6 5 5 5 5 5 5 5 5 5 5 5 5 5 5 5 5 5 4 4 4 4 4 5 5 4
6 6 6 6 6 7 7 7 7 6 6 6 6 6 6 6 6 6 6 6 6 5 5 5 5 5 5 5 4 4 4 4 5 5 4 4 4 4 4 4 4 4 4
7 7 7 7 7 7 7 7 7 6 6 6 6 6 6 6 6 6 6 6 6 5 5 5 5 5 5 4 4 4 4 4 4 5 5 4 4 4 4 4 4 4 4
7 7 7 7 7 7 7 7 7 6 6 6 6 6 6 6 6 6 6 5 5 5 5 5 5 5 4 4 4 4 4 4 4 4 4 4 4 4 3 3 4 4 4
7 7 7 7 7 7 7 6 6 6 6 6 6 6 6 6 6 5 5 5 5 5 5 5 5 5 5 5 5 4 4 3 3 3 3 3 3 3 3 3 3 3 3
7 7 7 7 7 7 6 6 6 6 6 6 6 6 6 5 5 5 5 5 5 5 5 5 5 5 5 5 5 5 4 4 4 3 3 3 3 3 3 3 3 3 3
7 7 7 7 7 6 6 6 6 6 6 6 6 5 5 5 5 5 5 5 5 5 4 4 4 4 4 4 4 4 4 4 4 4 4 3 3 3 3 3 3 3 3
7 7 7 7 7 7 6 6 6 6 6 6 6 5 5 5 5 5 5 5 5 4 4 4 4 4 3 3 3 3 3 3 3 3 3 3 3 3 3 3 3 3 3
7 7 7 7 7 6 6 6 6 6 6 6 5 5 5 5 4 4 4 4 4 4 3 3 3 3 3 3 3 2 2 2 2 2 2 3 3 3 3 3 3 3 3
7 7 6 6 6 6 6 6 6 6 6 6 5 5 5 4 4 4 4 4 3 3 3 3 3 3 2 2 2 2 2 1 1 2 2 2 2 2 3 2 2 2 2
7 7 6 6 6 6 6 5 5 5 5 5 5 5 4 4 4 4 4 3 3 3 2 2 2 2 2 1 1 1 1 1 1 1 1 2 2 2 2 2 1 1 1
7 7 6 6 6 6 6 5 5 5 5 5 4 4 4 4 3 3 3 3 3 3 2 2 2 1 1 1 1 0 0 -0 -0 0 0 1 1 1 1 1 0 0 0
7 6 6 6 6 6 6 6 5 5 5 5 4 4 3 3 3 3 3 3 2 2 2 1 1 0 0 0 0 -0 -0 -1 -1 -1 -1 -0 -0 -0 -0 -0 -0 -1 -1
6 6 6 6 6 6 6 5 5 5 5 4 3 3 3 3 3 3 2 2 2 1 1 1 0 -0 -0 -1 -1 -1 -1 -1 -1 -1 -1 -1 -1 -1 -1 -1 -1 -1 -1
5 5 5 6 6 5 5 5 5 4 4 4 3 3 3 2 2 2 1 1 1 0 0 0 -0 -0 -1 -1 -2 -2 -2 -2 -2 -2 -2 -2 -2 -2 -2 -2 -2 -2 -2
4 5 5 5 5 5 5 5 4 4 4 3 3 3 2 2 2 1 1 0 -0 -0 -0 -1 -1 -1 -1 -1 -2 -2 -2 -2 -2 -2 -3 -3 -3 -2 -2 -2 -2 -2 -3
4 4 5 5 5 5 5 4 4 4 3 3 3 3 2 2 1 1 0 -0 -0 -1 -1 -1 -1 -1 -2 -2 -2 -2 -2 -3 -3 -3 -3 -3 -4 -4 -3 -3 -3 -3 -3
5 4 4 5 5 4 4 4 4 4 3 3 2 2 2 1 1 0 -0 -1 -1 -1 -1 -1 -1 -2 -2 -2 -2 -2 -2 -2 -3 -3 -3 -3 -3 -3 -4 -4 -4 -4 -4
5 4 4 4 4 4 4 4 4 3 3 2 2 1 1 0 0 0 -0 -1 -1 -1 -1 -1 -2 -2 -3 -3 -3 -3 -3 -3 -3 -3 -3 -4 -5 -4 -4 -5 -5 -5 -5
5 4 4 4 3 3 3 3 3 3 2 2 1 1 0 0 -0 -0 -1 -1 -1 -2 -2 -2 -3 -3 -3 -4 -4 -4 -5 -5 -5 -4 -4 -5 -5 -6 -6 -6 -6 -6 -7
5 4 4 3 3 3 3 3 3 2 2 1 1 0 -0 -1 -1 -1 -1 -1 -2 -2 -2 -3 -3 -3 -4 -4 -4 -5 -4 -5 -5 -5 -5 -6 -6 -6 -7 -7 -8 -8 -8
5 4 4 3 2 2 2 2 2 1 1 1 0 -0 -0 -1 -1 -1 -1 -2 -2 -2 -2 -3 -4 -4 -4 -4 -5 -5 -5 -5 -6 -7 -7 -7 -8 -9 -9 -9 -10 -9 -10
Height
3180 3180 3181 3181 3182 3181 3181 3181 3181 3181 3180 3180 3179 3178 3177 3176 3175 3175 3174 3173 3172 3171 3170 3169 3168 3167 3166 3165 3164 3163 3163 3163 3162 3161 3161 3160 3159 3158 3157 3157 3157 3157 3157
3181 3181 3182 3182 3182 3182 3182 3182 3182 3182 3180 3180 3179 3178 3178 3177 3176 3175 3174 3173 3172 3171 3170 3169 3168 3167 3166 3165 3164 3164 3163 3163 3162 3162 3161 3161 3160 3159 3158 3157 3157 3157 3157
3181 3182 3183 3183 3183 3183 3182 3182 3181 3182 3181 3180 3179 3179 3177 3177 3176 3175 3174 3173 3172 3172 3171 3170 3169 3167 3166 3164 3164 3164 3164 3164 3163 3162 3161 3161 3161 3160 3160 3159 3157 3157 3158
3183 3184 3184 3184 3184 3183 3183 3182 3182 3181 3180 3180 3179 3178 3177 3176 3175 3174 3174 3173 3172 3171 3171 3170 3169 3167 3166 3165 3165 3166 3166 3164 3164 3162 3162 3161 3161 3160 3159 3159 3158 3157 3157
3185 3186 3186 3186 3185 3185 3183 3181 3181 3180 3180 3179 3178 3178 3177 3176 3175 3174 3173 3172 3172 3171 3170 3170 3168 3167 3164 3165 3166 3166 3165 3164 3164 3163 3162 3162 3161 3160 3159 3158 3157 3156 3156
3186 3186 3186 3186 3185 3184 3183 3182 3181 3180 3179 3179 3178 3177 3176 3175 3174 3173 3172 3172 3171 3170 3170 3169 3168 3167 3166 3165 3165 3164 3163 3163 3163 3162 3162 3161 3159 3159 3158 3157 3156 3156 3155
3188 3188 3187 3186 3185 3185 3184 3183 3182 3180 3179 3178 3177 3176 3175 3175 3174 3173 3172 3171 3170 3169 3167 3167 3166 3166 3166 3165 3164 3164 3163 3162 3162 3161 3160 3159 3159 3159 3157 3155 3155 3154 3154
3188 3188 3188 3187 3186 3185 3184 3183 3182 3180 3178 3177 3176 3176 3175 3175 3174 3173 3172 3170 3170 3169 3168 3166 3165 3164 3163 3162 3162 3161 3161 3161 3161 3160 3159 3158 3157 3157 3156 3154 3153 3152 3152
3189 3188 3188 3187 3185 3183 3183 3182 3181 3180 3178 3177 3177 3176 3176 3176 3176 3175 3173 3172 3171 3169 3168 3167 3165 3164 3163 3161 3161 3161 3160 3159 3159 3158 3157 3156 3156 3155 3154 3152 3151 3150 3150
3189 3188 3186 3187 3186 3183 3182 3181 3180 3180 3179 3178 3178 3177 3177 3177 3175 3175 3174 3172 3171 3170 3169 3167 3166 3164 3163 3162 3161 3160 3159 3157 3156 3154 3153 3153 3152 3152 3151 3150 3149 3149 3148
3188 3188 3187 3186 3186 3184 3183 3182 3181 3180 3180 3179 3179 3179 3178 3177 3176 3176 3174 3173 3172 3171 3169 3168 3166 3164 3162 3161 3159 3158 3156 3155 3154 3153 3151 3149 3148 3147 3146 3145 3144 3144 3144
3188 3187 3187 3186 3185 3183 3184 3184 3182 3181 3181 3180 3180 3179 3178 3178 3177 3176 3175 3174 3173 3172 3170 3168 3166 3164 3162 3160 3159 3156 3155 3153 3152 3150 3149 3147 3145 3143 3141 3140 3140 3139 3139
3188 3187 3186 3185 3184 3183 3183 3182 3182 3182 3182 3181 3181 3180 3179 3179 3178 3177 3176 3175 3174 3173 3171 3169 3167 3165 3163 3160 3159 3156 3154 3152 3150 3148 3146 3145 3143 3140 3138 3136 3135 3134 3133
3186 3187 3187 3184 3184 3183 3182 3182 3182 3182 3182 3182 3181 3181 3180 3179 3178 3178 3176 3175 3174 3172 3170 3168 3166 3164 3161 3159 3157 3154 3152 3150 3147 3145 3143 3142 3139 3137 3134 3132 3130 3128 3127
3184 3184 3185 3185 3184 3183 3183 3182 3181 3181 3181 3182 3181 3181 3180 3179 3179 3178 3177 3176 3174 3173 3171 3168 3165 3163 3160 3158 3155 3152 3150 3148 3145 3142 3139 3137 3136 3134 3131 3128 3125 3123 3121
3184 3183 3184 3185 3186 3184 3183 3183 3182 3182 3182 3182 3182 3181 3181 3180 3179 3178 3177 3176 3175 3173 3171 3168 3165 3162 3159 3157 3153 3150 3147 3145 3142 3140 3137 3133 3130 3129 3126 3124 3121 3118 3116
3183 3182 3183 3184 3185 3184 3184 3183 3183 3183 3182 3183 3182 3181 3181 3180 3179 3178 3177 3176 3174 3172 3170 3168 3165 3162 3159 3156 3152 3148 3145 3142 3138 3135 3132 3130 3127 3124 3121 3118 3116 3114 3111
3181 3182 3183 3183 3183 3183 3182 3182 3182 3181 3181 3181 3181 3181 3181 3180 3179 3178 3176 3175 3174 3172 3171 3169 3166 3163 3159 3155 3152 3148 3144 3140 3136 3132 3128 3124 3120 3117 3115 3113 3111 3108 3106
3181 3182 3182 3183 3183 3182 3181 3181 3180 3180 3180 3181 3181 3180 3180 3179 3178 3177 3175 3174 3172 3170 3168 3167 3165 3162 3159 3155 3150 3146 3141 3137 3134 3129 3124 3120 3116 3113 3109 3106 3104 3103 3101
3180 3181 3181 3181 3181 3181 3181 3180 3180 3180 3179 3180 3180 3179 3178 3178 3177 3175 3174 3172 3170 3167 3165 3163 3161 3158 3156 3153 3149 3143 3139 3134 3130 3127 3122 3117 3112 3108 3104 3101 3099 3097 3095
3180 3181 3180 3180 3180 3180 3180 3180 3179 3179 3179 3178 3178 3178 3176 3175 3174 3173 3171 3169 3166 3164 3162 3159 3156 3153 3150 3148 3145 3143 3137 3132 3127 3122 3118 3113 3108 3103 3098 3095 3093 3090 3088
3179 3180 3179 3179 3179 3179 3178 3178 3178 3178 3177 3176 3176 3176 3174 3173 3171 3170 3168 3165 3163 3160 3157 3155 3151 3146 3142 3138 3135 3130 3127 3127 3123 3117 3112 3108 3104 3099 3094 3087 3084 3082 3079
3178 3179 3179 3178 3177 3177 3176 3176 3177 3176 3176 3175 3174 3173 3171 3169 3168 3166 3164 3161 3159 3156 3153 3150 3146 3142 3137 3130 3125 3121 3113 3108 3105 3106 3104 3098 3094 3091 3088 3082 3076 3073 3070
3176 3177 3177 3177 3176 3175 3173 3173 3173 3174 3174 3172 3171 3170 3168 3166 3164 3163 3160 3157 3154 3151 3148 3144 3139 3135 3130 3124 3118 3113 3106 3099 3092 3084 3085 3090 3083 3079 3075 3074 3069 3062 3059
3173 3175 3175 3175 3174 3172 3170 3169 3169 3170 3171 3169 3168 3166 3164 3162 3161 3159 3156 3153 3149 3146 3142 3138 3132 3127 3121 3115 3109 3104 3099 3094 3089 3081 3071 3068 3073 3071 3065 3062 3059 3053 3047
3170 3172 3173 3172 3171 3169 3167 3167 3166 3166 3166 3166 3165 3162 3160 3158 3157 3154 3151 3148 3144 3140 3135 3130 3125 3119 3113 3107 3101 3095 3087 3079 3071 3064 3057 3053 3049 3048 3052 3052 3049 3045 3038
Wind_Speed
11 9 8 7 5 3 3 2 3 4 4 4 4 4 4 4 4 4 2 2 3 3 4 4 4 5 4 4 4 4 5 6 7 6 6 5 5 5 6 7 7 7 6
10 8 6 6 4 4 5 5 5 6 6 6 6 6 7 7 6 5 4 3 2 1 1 2 2 2 2 2 2 3 4 4 4 4 4 5 4 3 4 5 6 6 6
12 8 6 6 5 5 5 4 4 4 4 4 4 4 5 5 5 4 4 4 3 2 2 2 2 3 3 4 3 2 3 4 3 3 1 3 4 5 4 2 4 5 5
9 7 6 5 4 2 2 4 5 5 6 6 6 6 7 7 7 6 5 4 5 4 4 3 3 5 7 7 7 7 5 4 3 1 3 3 2 2 3 2 1 2 2
7 5 4 2 2 4 6 6 6 5 5 6 6 6 7 7 7 7 7 8 8 7 6 6 6 7 9 9 8 9 10 8 7 6 5 3 6 6 5 6 5 3 2
5 4 4 5 7 8 7 6 6 6 6 6 6 6 7 7 6 6 6 7 7 8 9 8 9 9 10 10 8 8 9 11 10 10 9 7 7 5 9 9 9 7 7
6 7 8 9 9 8 8 7 7 6 5 5 5 6 7 8 7 6 6 6 6 7 7 8 9 10 10 11 11 11 11 12 13 12 13 11 11 10 10 10 10 10 9
7 9 9 7 8 8 9 8 8 7 6 6 7 7 7 7 6 5 5 5 5 6 7 7 8 9 10 12 13 12 13 13 14 14 15 16 14 13 12 12 11 11 12
8 9 7 6 5 6 7 7 7 7 7 7 7 7 7 7 8 7 8 8 8 8 8 8 8 9 10 11 12 13 14 15 15 15 15 16 17 16 12 11 14 14 14
8 9 7 7 7 6 5 5 6 7 7 8 8 8 8 9 8 8 9 9 9 10 10 10 10 11 12 13 13 12 12 13 15 16 17 17 18 19 21 23 22 16 12
6 6 5 6 7 7 7 6 6 7 8 8 8 8 8 9 10 11 11 11 10 10 11 11 11 11 11 12 13 14 13 14 14 14 16 18 19 21 23 24 25 25 26
6 3 4 5 5 6 7 8 8 7 6 6 6 6 8 9 9 9 9 10 10 11 12 12 13 13 13 13 13 14 14 14 14 14 13 14 16 18 20 21 22 24 26
3 1 2 5 5 6 7 7 7 6 6 6 6 7 8 8 7 9 10 10 11 12 12 12 12 13 13 14 15 16 17 17 16 16 16 15 16 18 18 20 21 21 24
3 0 2 4 4 4 4 5 4 4 5 6 6 7 8 7 9 10 11 12 13 13 14 14 14 15 15 15 15 15 15 15 17 17 18 18 17 18 21 22 22 22 22
4 0 1 2 2 2 2 3 3 4 5 5 5 6 6 7 9 10 11 12 12 14 14 16 17 18 18 18 18 18 18 18 19 21 22 22 22 22 22 22 22 22 23
5 1 2 3 3 3 2 2 3 3 4 4 4 5 6 7 7 9 10 11 13 14 16 18 20 22 23 22 22 22 23 23 23 23 23 25 26 26 24 23 22 21 21
7 4 3 3 2 2 4 3 3 3 3 3 4 5 4 5 6 7 9 11 12 15 17 19 20 22 23 24 24 25 25 26 27 28 27 27 26 26 26 25 22 20 21
6 6 5 5 3 2 3 2 2 2 2 2 3 4 4 4 5 7 9 11 12 13 14 16 18 20 22 24 25 26 27 27 29 30 30 31 32 31 28 25 22 22 20
6 7 7 7 5 4 5 4 3 4 4 4 4 5 5 4 6 7 9 11 14 15 17 19 20 22 23 24 26 27 28 29 29 30 30 31 32 31 31 29 25 21 21
3 5 7 8 8 7 7 7 6 6 6 6 7 7 8 8 8 10 11 13 16 19 21 24 26 27 28 28 27 28 29 30 31 29 30 32 30 32 30 29 29 28 25
6 6 6 7 8 10 9 9 9 7 8 9 10 10 11 12 12 13 15 16 19 22 25 28 31 33 33 32 30 27 29 30 31 32 32 32 32 32 33 34 33 33 32
8 8 10 9 7 10 13 13 11 10 10 12 13 13 14 15 16 17 18 20 22 26 29 32 35 38 40 40 38 38 37 34 33 35 33 33 31 32 34 37 37 37 38
6 6 9 12 11 10 14 15 14 13 12 13 15 15 16 18 19 20 22 24 25 28 32 35 38 40 43 44 44 44 47 49 49 43 39 38 36 34 33 36 40 40 42
4 4 7 11 14 15 15 15 15 15 14 16 17 17 18 20 21 23 25 27 29 32 36 38 41 44 45 45 46 48 49 53 55 57 51 40 40 38 36 33 37 43 44
5 8 10 12 14 17 17 14 16 16 17 18 19 19 19 21 23 25 28 31 34 37 37 40 44 47 49 51 52 53 54 53 52 53 55 51 39 35 35 34 33 39 43
9 12 12 12 13 17 18 15 15 17 18 19 20 21 24 26 28 31 33 36 38 38 40 43 46 50 53 54 56 57 58 59 59 58 58 55 53 47 36 31 30 34 40
Wind_Direction
112 107 108 108 109 110 99 65 27 25 32 31 29 34 33 42 53 59 63 42 55 48 39 35 32 39 40 36 30 29 33 37 38 35 39 52 45 62 72 71 63 58 36
111 102 107 103 97 82 66 52 38 28 31 30 26 24 24 27 33 28 22 9 14 34 37 27 20 18 14 1 353 3 12 30 34 34 28 32 34 40 77 81 69 57 47
110 112 104 93 86 74 64 41 24 359 356 358 357 352 353 348 353 4 4 352 339 334 322 326 322 317 309 293 295 327 346 6 9 358 357 40 20 9 358 35 81 54 26
104 105 90 81 67 40 357 336 323 313 312 308 310 311 309 306 302 302 301 301 302 304 304 298 295 291 289 293 315 324 334 326 349 348 306 238 327 330 303 306 331 84 36
98 87 84 62 334 321 324 324 316 320 315 310 320 312 302 299 292 291 285 275 271 274 277 285 287 282 287 300 308 315 315 319 326 330 346 320 320 308 309 313 305 307 317
82 61 17 343 326 326 333 335 338 342 346 346 343 333 325 317 318 321 309 295 286 277 273 271 270 276 284 288 288 287 293 301 308 312 313 312 336 319 317 312 300 298 294
39 17 357 341 344 346 344 344 340 342 345 350 337 332 330 325 324 325 321 316 308 302 291 278 271 270 272 279 284 288 288 292 298 300 301 302 304 311 306 308 296 286 286
21 7 350 356 356 351 345 342 342 341 341 350 348 344 333 330 330 333 329 330 334 332 323 316 300 286 275 272 272 276 282 286 288 292 294 297 298 304 299 308 290 296 288
1 352 348 349 357 0 357 352 346 347 352 354 351 356 356 2 9 8 14 9 5 356 350 343 329 318 306 296 293 290 284 281 281 281 281 283 287 286 288 282 302 301 292
348 353 1 353 354 4 4 0 6 2 1 360 11 6 12 14 12 14 24 19 18 9 3 360 353 343 333 326 321 314 303 295 289 283 278 276 273 272 273 275 282 284 286
343 351 8 18 6 358 8 16 18 14 11 10 13 15 28 25 22 30 31 27 26 25 19 15 9 0 353 345 337 331 324 313 305 299 296 291 285 281 276 274 273 268 271
339 334 35 35 26 26 18 17 22 25 25 29 29 36 44 46 42 41 39 32 25 20 16 4 354 351 347 339 334 329 326 325 321 315 307 301 297 292 288 285 280 274 267
326 300 32 51 51 36 30 39 33 24 30 39 44 54 55 57 48 37 32 24 15 7 359 348 341 335 328 325 322 321 319 319 315 313 310 305 302 300 298 294 287 279 273
313 193 75 53 43 65 48 60 56 52 51 46 43 44 48 40 31 25 20 14 11 6 1 355 348 342 337 332 328 321 316 312 309 307 307 311 310 306 306 307 300 292 282
302 295 34 55 83 90 85 88 84 65 56 50 36 37 37 28 25 21 20 21 19 16 13 9 4 357 350 344 339 331 326 324 319 317 315 311 308 310 310 308 306 298 289
305 303 326 2 11 27 14 66 66 56 49 44 15 17 21 22 22 22 23 21 20 16 15 13 9 2 357 354 346 340 335 333 329 326 322 318 317 317 316 314 310 301 293
308 317 306 317 344 352 339 358 20 20 15 14 352 356 6 9 15 14 12 11 5 5 6 5 4 1 354 351 346 340 337 335 335 333 329 324 320 320 319 317 313 306 296
310 306 276 269 268 276 283 296 336 330 319 331 321 326 330 343 349 353 352 349 346 351 352 350 348 348 345 344 342 337 334 335 336 332 329 328 328 325 321 317 315 310 303
304 300 278 266 265 272 284 285 290 289 300 309 296 298 301 301 318 326 329 327 327 336 338 337 337 336 335 335 334 334 331 331 330 329 328 324 320 317 316 314 314 307 300
328 298 280 265 271 273 280 285 285 285 290 293 287 285 283 289 296 303 308 312 320 325 329 330 329 330 330 329 327 327 326 323 323 322 320 317 313 311 309 306 305 303 299
54 11 333 293 279 281 279 277 277 283 290 284 281 279 278 282 284 290 297 304 313 316 320 322 323 325 325 322 319 317 318 319 319 317 316 312 308 305 302 299 297 295 292
68 35 14 359 313 289 287 283 291 292 285 282 280 275 273 277 280 285 291 301 307 311 314 316 318 321 322 322 321 322 321 316 314 313 312 308 304 300 296 294 292 290 287
63 23 3 2 349 317 293 295 296 293 287 282 275 271 271 275 279 281 290 299 303 305 308 311 315 318 320 321 323 324 323 320 319 318 317 313 306 298 292 287 286 284 283
27 341 331 337 338 331 319 298 292 288 286 278 277 275 272 276 280 283 290 295 301 305 306 309 313 315 317 320 322 321 321 320 319 317 316 313 308 303 295 286 279 281 280
308 297 292 310 322 325 327 305 290 290 285 280 279 279 277 278 283 288 291 297 302 303 304 307 310 315 319 320 319 319 316 314 312 312 312 313 306 301 294 288 280 273 275
289 283 286 301 310 320 325 317 300 289 288 286 285 285 289 294 298 298 301 302 302 302 304 308 313 317 317 316 316 316 316 318 318 317 316 316 314 314 304 290 279 272 272